Wind_Speed
24 25 28 30 30 30 30 30 32 32 33 33 32 31 29 27 26 25 24 23 22 21 20 19 18 17 16 15 13 11 9 8 6 5 3 3 4 4 5 5 5 5 5 5 5 4 4 3 3 3 3 2 2 2 2 2 2 2 3 4 6 7 8 11 13 15 14 11 12 15 14 15 17 16 16 16 15 15 16 17 18 18 17 16 17
24 26 28 29 30 31 32 34 34 34 34 35 35 34 32 30 28 27 26 26 25 24 23 21 20 19 18 17 15 13 11 9 8 7 5 4 4 4 4 4 5 5 6 6 6 6 6 5 5 4 4 4 4 4 4 3 3 3 3 4 6 7 8 10 12 15 16 13 12 14 13 13 15 15 14 15 15 15 16 17 17 16 16 17 18
20 24 27 29 30 32 34 36 37 35 34 35 36 36 35 33 31 29 28 28 27 26 25 23 22 21 21 19 17 14 12 10 9 8 6 6 5 4 4 4 4 4 5 6 7 8 8 7 7 6 6 6 6 6 5 5 4 4 5 5 6 8 8 10 12 15 18 17 14 14 14 13 14 14 14 15 16 17 17 17 17 16 17 17 17
15 19 23 27 29 30 32 36 38 37 35 35 36 37 36 34 33 31 30 29 29 28 27 24 23 23 22 20 18 16 14 12 10 8 7 6 6 5 4 3 3 3 4 6 7 8 8 9 9 8 8 8 8 7 7 7 6 6 7 6 6 8 8 10 12 14 17 19 17 16 16 15 16 15 15 16 16 16 17 17 18 18 17 17 18
9 14 20 26 28 29 31 33 36 37 36 35 35 35 35 34 33 33 32 31 30 30 28 26 25 25 23 21 19 17 15 12 10 9 7 6 5 3 2 2 3 4 5 6 7 7 8 9 9 9 9 9 9 9 8 9 9 9 9 9 8 8 8 10 12 13 16 19 19 17 16 16 16 16 15 16 16 15 15 16 17 18 18 18 18
4 7 15 21 24 27 29 31 33 35 35 34 33 33 33 33 33 33 33 33 32 31 30 29 27 26 24 22 19 17 14 12 11 9 7 5 2 0 2 4 6 7 8 8 8 8 9 9 10 10 10 10 10 10 10 11 11 11 11 11 11 10 10 11 12 13 15 18 19 18 16 15 16 16 14 14 15 16 16 16 17 16 17 17 16
11 6 6 12 17 22 26 29 31 32 33 32 32 31 31 31 32 33 33 30 29 30 31 30 29 27 24 21 19 17 15 13 11 9 6 4 1 2 5 7 8 9 10 10 10 10 10 10 10 10 11 11 12 12 12 12 12 12 12 12 12 12 12 12 13 13 15 16 18 17 16 14 14 15 14 13 15 16 16 16 16 15 14 15 15
17 14 10 7 11 16 22 26 29 31 31 30 29 29 30 31 31 32 32 29 27 30 33 32 29 27 24 21 19 16 15 13 11 8 5 2 1 3 6 7 7 8 9 10 10 11 11 10 11 11 11 12 13 14 14 14 14 14 14 14 14 15 14 14 13 14 15 15 16 16 16 15 14 14 13 12 13 13 12 13 15 15 14 14 15
21 19 16 12 11 12 16 21 25 28 30 29 28 28 29 30 30 31 32 31 31 33 33 30 28 26 23 21 19 17 16 14 11 8 5 3 2 3 5 5 5 7 8 9 10 11 11 11 12 13 13 15 16 17 17 17 17 18 17 15 16 16 17 16 16 15 15 15 15 15 15 15 13 13 12 10 11 12 12 14 16 16 16 16 17
22 21 19 17 15 13 12 15 19 23 27 28 29 29 29 29 29 30 32 33 33 34 33 30 29 28 25 22 20 18 16 13 10 8 5 3 2 2 2 3 5 6 7 8 10 11 12 12 13 16 17 17 16 16 17 18 19 20 20 19 18 18 18 18 18 18 17 16 15 14 15 15 14 13 14 12 12 13 14 14 15 16 16 16 16
21 21 21 20 19 16 13 12 13 17 22 25 27 28 28 28 28 30 32 32 33 34 33 32 31 29 25 23 20 18 14 11 9 7 5 3 1 0 2 3 5 6 7 8 9 11 12 13 14 16 17 17 16 17 18 18 18 19 20 21 21 21 21 20 20 19 19 19 17 16 15 16 15 14 14 13 12 13 14 14 14 14 14 14 13
20 20 21 21 21 19 15 12 11 14 18 22 24 25 26 27 27 30 31 31 32 33 33 33 31 28 25 22 19 16 13 11 9 6 4 2 1 1 2 3 4 5 7 8 10 11 13 14 14 15 17 18 19 17 17 17 17 19 20 21 22 23 24 24 24 22 20 20 19 18 17 17 17 16 14 13 14 14 14 14 14 14 14 14 14
18 20 21 21 20 20 18 14 12 12 15 18 22 23 25 26 27 29 31 31 33 34 34 33 30 27 24 21 18 16 14 12 9 7 4 2 2 2 2 3 5 6 8 9 10 12 13 14 15 15 16 18 18 16 16 16 17 18 19 20 21 21 23 25 26 26 26 24 23 22 20 18 19 19 16 15 15 15 16 16 15 15 16 16 16
16 19 21 21 20 20 19 16 14 12 13 16 19 22 23 25 27 28 30 32 35 36 35 32 29 27 24 20 17 16 14 12 10 6 3 2 3 3 3 5 6 7 9 11 12 13 14 15 15 16 16 17 16 16 16 16 17 18 18 18 18 19 20 22 24 25 27 28 27 27 25 23 23 22 20 19 18 18 18 18 18 18 18 18 19
15 17 20 22 20 19 18 16 14 12 12 15 19 21 22 25 26 28 32 35 37 36 34 32 29 26 22 19 17 16 14 11 8 5 3 3 4 5 5 7 8 9 11 13 13 14 15 16 16 17 17 17 17 18 18 17 18 19 19 20 20 20 20 21 22 23 24 25 26 26 25 25 24 24 22 21 20 19 18 19 19 19 19 20 20
15 17 19 21 19 18 16 15 14 12 12 16 19 21 23 25 27 31 34 35 36 35 33 31 29 25 21 19 18 16 13 10 7 5 4 4 5 6 7 8 9 10 12 14 15 15 15 16 17 17 18 18 18 20 21 20 20 20 21 22 22 21 21 20 21 22 23 25 26 27 27 27 26 26 25 23 23 22 21 23 22 20 21 22 21
16 17 18 19 18 17 16 14 13 13 14 17 20 22 24 26 30 33 35 35 35 35 34 31 27 24 22 21 18 15 12 9 7 6 6 6 7 8 8 9 10 12 14 16 16 15 17 20 21 19 19 19 19 21 22 22 22 22 23 24 24 24 23 21 20 21 23 25 27 28 30 30 31 31 31 30 30 27 25 27 24 21 22 21 18
16 17 17 17 17 17 16 14 13 14 15 18 22 24 25 27 30 33 36 37 37 37 34 30 27 24 22 20 16 11 9 8 7 7 7 7 8 10 10 9 11 13 14 14 15 15 18 23 25 23 21 20 21 23 23 23 23 23 24 25 25 25 23 21 21 21 21 23 24 26 28 30 31 32 33 34 34 31 30 30 25 22 22 20 17
17 16 17 17 17 17 16 15 14 15 17 20 23 25 26 28 30 32 33 33 32 31 31 29 27 25 21 17 13 9 6 7 8 9 8 8 10 12 11 10 12 13 13 14 15 15 17 20 23 24 23 22 22 22 22 22 23 24 25 26 27 26 23 22 22 22 22 22 22 23 25 26 27 28 29 31 32 32 33 33 29 26 26 23 20
18 17 18 18 18 18 17 15 15 16 17 21 24 25 26 28 30 32 33 32 30 29 28 26 25 22 17 13 11 9 7 7 9 9 9 10 13 14 13 12 13 13 14 14 16 17 18 18 19 21 22 22 23 23 23 23 24 25 26 26 27 26 24 23 24 24 25 25 25 24 25 24 24 25 25 26 27 28 29 30 29 29 28 25 23
19 19 19 19 18 18 16 15 15 16 17 21 24 25 26 30 33 34 34 34 32 30 27 23 19 17 14 12 11 10 9 8 8 8 9 12 15 17 16 14 14 14 15 16 17 19 19 19 20 21 22 23 23 24 25 26 27 27 27 28 29 29 27 27 28 28 28 28 27 26 26 24 24 24 25 25 25 26 27 27 28 28 28 26 25
19 19 19 19 18 17 16 15 15 16 18 22 25 26 27 30 33 34 34 33 31 29 25 20 15 12 12 13 11 10 9 8 8 9 12 14 16 16 16 16 16 16 15 16 18 19 20 22 24 24 23 23 25 27 29 30 30 30 30 31 32 32 32 32 30 29 28 27 26 25 25 24 24 24 24 25 26 26 27 28 27 27 29 29 28
19 19 19 19 18 17 16 15 15 17 20 22 23 24 25 27 29 31 31 31 29 26 21 16 13 13 14 14 10 9 9 9 10 11 12 12 12 13 14 15 16 16 16 17 19 21 23 24 24 23 24 26 29 31 31 32 31 30 31 32 33 33 33 31 30 29 27 26 26 26 25 25 25 25 25 25 25 25 26 26 25 26 27 28 29
19 18 18 18 17 16 15 13 14 18 21 22 21 21 23 26 28 28 28 25 22 20 18 16 15 14 12 10 7 6 6 7 8 8 9 10 11 13 15 18 20 20 20 20 21 22 24 24 24 26 28 30 31 32 32 31 30 30 30 31 31 30 29 28 27 27 26 25 25 26 27 26 26 26 25 24 24 24 24 24 24 24 26 26 27
18 17 16 16 16 15 12 12 16 19 22 24 25 27 27 28 27 26 23 21 19 17 17 16 14 10 6 4 3 2 4 6 7 8 10 12 15 17 20 22 24 24 23 21 20 22 24 25 27 28 29 29 29 29 28 27 26 27 28 29 29 27 26 25 25 24 23 24 24 25 27 27 27 27 26 24 24 24 23 23 23 23 24 25 26
19 17 15 15 15 12 11 13 16 20 23 26 29 31 30 28 25 21 18 18 17 16 14 13 10 7 5 2 0 2 4 6 7 10 13 15 18 20 22 22 21 21 20 19 20 22 24 24 25 26 26 26 25 25 24 24 24 25 26 26 25 24 23 23 23 23 23 23 24 25 26 26 26 26 25 25 25 25 23 22 22 22 22 22 24
20 17 15 14 12 11 14 17 22 26 29 31 32 31 29 28 25 22 19 18 16 14 12 10 9 7 4 2 1 2 4 5 7 9 12 15 16 17 16 16 16 17 17 17 19 21 22 22 23 23 22 22 22 22 23 23 23 22 22 21 20 21 21 22 23 23 24 24 24 25 25 25 24 25 24 25 25 25 24 24 23 22 22 22 23
20 17 14 12 12 15 19 25 30 31 32 33 32 29 27 26 24 23 22 21 19 17 14 11 8 6 4 2 1 2 4 5 7 10 13 14 14 13 12 12 14 15 16 17 19 20 20 20 20 19 19 19 19 20 20 20 20 20 20 20 20 21 22 23 24 26 27 27 26 26 26 25 25 24 24 24 25 25 25 25 25 24 22 21 21
20 17 14 14 17 21 25 30 35 35 34 34 31 27 25 23 21 21 22 22 21 19 16 13 9 7 5 4 3 3 4 5 8 11 13 13 13 13 12 12 13 13 14 16 18 18 17 17 17 17 18 19 19 19 20 20 20 20 20 21 21 21 21 22 23 25 26 26 27 28 29 28 27 26 25 25 26 25 25 25 26 25 24 23 21
19 17 16 18 23 26 28 31 35 35 34 32 29 26 24 21 19 20 21 20 18 15 13 11 9 7 6 6 5 4 5 6 9 10 11 11 12 12 11 11 11 12 14 15 15 15 15 16 17 18 19 19 19 20 20 21 21 21 21 21 21 21 21 22 23 24 24 25 25 27 27 27 27 25 25 25 26 25 24 25 26 25 24 23 22
18 19 21 24 28 30 30 31 33 32 30 29 27 25 23 20 19 20 21 19 15 12 10 10 9 7 6 7 6 5 6 7 8 9 9 11 12 12 11 10 10 12 14 13 12 13 15 17 18 18 19 20 20 21 21 22 22 22 22 21 21 21 21 22 22 22 22 22 23 24 24 24 23 22 23 23 23 23 23 23 25 25 25 24 22
19 21 24 27 30 31 31 30 29 27 27 27 26 25 24 21 19 17 16 15 12 11 11 10 9 8 7 7 7 7 8 9 8 9 10 12 13 13 11 11 12 14 15 13 12 14 16 17 18 19 19 20 20 21 22 22 22 22 22 22 21 21 21 22 23 24 24 23 22 22 22 22 22 21 21 21 20 20 20 21 22 23 23 23 22
22 25 27 30 30 29 28 28 28 27 27 26 26 26 26 23 19 17 15 14 14 14 13 11 9 8 8 7 8 9 10 10 10 11 13 14 15 14 14 14 14 14 14 13 13 15 16 17 18 19 19 20 21 21 21 21 22 22 23 22 22 22 23 24 25 25 24 23 23 23 23 23 22 21 20 19 19 18 18 19 20 21 21 20 20
28 29 30 32 31 28 27 29 30 29 26 25 24 25 23 21 20 19 17 17 16 16 14 11 9 8 8 8 9 11 12 12 13 13 15 16 16 15 14 13 13 13 13 13 14 15 17 18 19 19 19 19 20 21 21 22 22 23 23 23 23 23 23 23 23 23 22 21 21 22 21 21 21 20 18 18 18 18 18 18 18 18 19 19 19
32 31 31 32 32 30 28 29 30 29 26 24 24 25 23 21 20 18 17 16 16 15 14 13 10 9 8 8 8 11 13 14 15 15 16 16 16 14 12 12 13 14 14 14 15 17 18 18 19 19 20 20 20 20 21 22 22 23 23 23 23 23 23 22 21 21 21 20 21 21 21 21 21 20 19 18 18 17 17 17 17 17 18 18 18
32 31 30 30 31 29 27 27 29 29 29 28 28 27 25 22 20 17 16 16 16 15 14 13 12 10 8 7 7 10 13 14 15 15 15 15 14 12 11 12 13 14 14 14 15 17 17 18 19 20 20 20 20 21 21 22 22 22 23 23 23 23 23 22 21 21 21 20 21 21 22 21 20 19 19 19 19 18 17 17 17 17 17 16 15
30 29 28 27 27 25 24 25 27 28 29 28 27 26 23 20 18 16 16 16 16 14 12 12 11 9 7 6 6 8 10 13 14 14 14 13 12 11 10 11 12 14 15 15 15 16 17 19 19 20 20 20 21 22 22 22 23 23 23 23 23 23 23 23 23 22 22 21 21 21 21 20 20 20 20 19 18 17 17 17 17 16 17 17 15
29 29 27 25 23 21 22 24 26 27 27 26 24 22 19 17 15 15 16 17 16 13 11 10 8 6 6 5 5 6 8 10 12 11 10 10 10 10 11 11 12 14 15 16 16 16 17 19 20 19 19 20 21 22 22 23 23 23 23 23 23 23 23 23 22 21 19 18 19 20 19 18 18 20 21 19 17 16 16 16 16 15 16 17 17
25 24 21 19 19 21 24 26 27 26 25 23 20 19 17 15 14 15 17 17 15 12 9 8 7 5 5 4 4 6 6 7 8 8 8 9 10 11 11 12 13 14 15 16 16 16 17 19 19 19 19 20 21 22 23 23 24 24 23 23 23 23 22 21 21 20 18 17 18 18 18 17 16 18 20 19 17 16 15 16 16 15 14 14 15
19 18 16 17 20 23 26 26 25 23 21 19 17 16 14 13 14 16 18 16 13 10 8 7 6 5 4 2 4 5 5 5 6 6 6 8 9 10 11 12 13 14 15 16 16 17 18 19 19 20 20 21 22 22 23 24 24 24 23 22 22 22 22 21 21 19 17 17 18 17 16 15 14 15 17 17 16 15 15 14 15 15 14 13 14
18 17 17 19 22 24 24 23 21 19 17 15 13 12 12 13 15 18 17 13 10 9 7 6 5 4 2 1 4 5 4 4 4 5 5 6 8 9 11 12 13 14 15 16 16 17 18 19 19 20 21 22 22 23 24 24 23 23 23 23 22 22 21 21 20 18 17 18 18 17 16 14 9 11 15 14 14 15 14 12 12 12 12 12 15
17 17 19 21 22 22 21 20 17 14 12 11 11 12 13 15 17 17 15 12 10 8 6 5 4 2 0 2 3 4 4 4 4 4 4 5 7 8 10 11 12 13 14 15 16 17 19 19 20 20 20 21 22 22 23 24 23 22 22 23 23 22 21 20 19 18 18 20 18 16 14 12 6 9 12 13 13 13 12 11 10 11 12 14 19
15 17 20 21 20 20 19 16 14 13 12 13 14 15 15 16 15 14 12 11 9 6 4 3 2 1 1 2 3 4 4 4 4 4 4 5 7 8 9 11 12 13 14 15 15 17 19 19 20 20 20 21 21 21 22 23 23 22 22 23 23 22 21 19 19 18 19 19 16 12 10 7 3 6 9 12 13 12 11 11 11 13 15 16 19
17 20 21 20 19 18 17 15 15 15 15 16 17 16 16 15 14 12 11 9 7 5 3 2 1 1 2 3 4 5 5 4 4 4 5 5 6 7 9 11 12 13 14 15 15 17 19 19 20 21 21 21 21 22 22 24 25 24 22 22 23 23 21 20 19 18 18 17 14 10 7 4 1 2 5 9 12 12 12 12 13 15 17 18 19
19 20 21 21 20 19 18 17 17 17 17 17 17 15 14 13 12 10 9 7 5 3 2 1 2 2 3 4 5 5 5 5 5 5 5 6 7 7 8 10 12 13 14 15 16 17 18 19 20 21 22 22 24 23 23 25 28 27 24 23 23 23 21 20 18 17 15 14 11 8 6 3 3 4 5 8 11 13 14 15 17 18 18 19 19
21 21 22 22 21 20 18 17 16 15 14 14 13 12 10 9 9 8 7 5 4 3 2 3 3 4 5 5 5 5 6 5 6 6 6 7 7 8 8 10 12 13 13 15 16 17 18 18 19 20 21 22 24 24 23 25 28 28 26 24 23 22 20 18 15 14 13 11 8 5 4 4 6 7 9 12 14 15 16 17 18 19 20 20 21
22 22 22 21 19 18 15 13 11 10 9 9 9 9 8 8 7 7 6 5 4 3 3 4 4 5 5 5 6 6 6 6 6 7 7 8 8 8 9 11 12 13 13 14 16 17 18 19 19 19 20 22 24 24 23 25 28 29 27 25 24 22 19 16 14 12 11 9 6 5 6 7 9 11 12 15 17 18 18 17 18 20 21 22 23
21 20 18 16 15 13 11 9 9 8 8 9 9 9 9 8 8 6 5 5 5 5 5 5 5 5 6 6 6 6 6 7 7 7 8 9 9 9 9 10 12 13 14 14 15 17 19 19 19 20 21 23 25 25 24 26 29 30 27 24 23 20 17 15 13 12 10 9 8 9 10 12 13 14 16 17 19 21 21 19 20 21 22 22 24
16 15 13 12 12 10 9 9 8 8 8 9 9 10 10 9 8 7 6 6 6 6 6 6 6 6 6 6 7 7 7 7 7 8 9 9 10 11 10 9 10 13 14 14 15 17 18 19 18 19 22 26 29 28 26 27 30 30 27 24 21 19 17 16 14 12 12 12 13 13 14 16 17 17 19 20 22 23 23 23 23 24 24 23 24
13 13 12 12 11 10 10 9 9 9 9 9 10 11 11 10 9 9 8 8 8 8 8 7 7 7 6 7 7 7 7 8 8 8 9 10 11 12 11 10 9 11 13 14 16 17 18 18 18 18 22 27 31 32 31 32 33 31 27 22 20 19 18 17 16 15 15 16 17 17 18 20 20 20 21 22 23 24 24 25 25 26 26 25 24
13 12 12 12 12 11 11 11 11 11 11 11 12 12 11 10 10 9 9 9 9 9 9 8 8 7 7 7 7 7 7 8 8 9 10 11 11 12 11 11 10 9 10 12 15 17 18 18 17 18 22 27 31 32 33 34 35 33 29 24 21 20 20 19 19 18 18 19 20 21 21 22 23 22 21 23 24 25 25 25 26 26 25 24 25
Wind_Direction
228 227 227 228 227 224 225 231 235 233 232 235 238 240 238 235 233 226 219 215 210 206 204 204 204 202 198 195 191 188 183 178 172 160 141 110 85 64 48 46 47 42 38 36 34 24 11 355 338 326 322 315 314 313 307 305 296 273 266 271 267 266 269 271 276 283 285 284 288 294 299 300 297 296 296 296 297 297 295 292 295 299 298 294 288
231 233 232 231 231 228 227 230 235 233 232 233 236 238 238 236 235 230 222 218 215 211 209 208 205 203 199 196 192 189 184 179 173 160 150 137 109 77 57 45 31 23 21 17 11 5 358 347 336 325 311 301 298 298 298 296 290 277 270 273 272 269 269 272 277 285 290 293 297 299 303 304 300 297 298 297 298 299 296 292 293 297 300 300 298
234 237 236 235 235 234 232 233 236 236 234 234 236 237 237 236 235 233 227 222 218 215 213 211 207 202 198 195 191 187 184 181 175 165 157 143 125 104 81 60 35 19 10 2 355 350 346 340 334 328 319 310 301 298 297 294 290 284 278 273 272 271 269 270 272 279 287 294 299 301 303 305 302 300 300 296 295 296 293 288 288 292 297 301 301
243 243 243 242 240 239 237 236 238 238 237 237 238 238 238 236 235 234 231 225 220 217 215 213 208 202 197 193 190 187 185 182 176 170 163 147 132 119 97 70 42 17 355 347 342 338 335 330 327 323 318 311 305 300 296 293 293 290 285 279 271 270 269 270 271 275 283 289 293 296 299 300 298 299 302 299 295 292 288 285 284 285 289 296 299
259 251 249 246 243 241 242 242 241 242 242 240 240 240 239 237 235 233 232 227 222 219 216 212 208 203 198 194 190 187 185 181 175 172 169 161 148 127 84 38 3 345 334 330 327 323 319 315 313 314 311 306 302 299 294 293 292 288 286 284 278 274 272 270 271 274 279 284 289 292 293 294 294 296 300 301 299 295 289 286 285 283 283 287 294
344 265 250 245 244 245 246 247 246 245 245 245 244 242 240 239 236 233 232 227 220 217 215 212 207 203 199 195 190 186 181 177 174 173 175 177 174 11 358 352 338 329 325 323 318 313 309 305 303 302 300 297 295 293 290 289 287 285 282 281 278 275 271 269 269 270 274 280 285 288 288 287 290 292 294 297 299 298 295 291 287 281 278 280 286
19 355 277 254 250 250 250 252 252 251 250 248 247 244 242 241 238 234 229 221 216 217 216 211 207 203 199 194 189 185 181 177 179 181 183 190 204 338 341 340 332 327 327 324 319 314 307 303 300 296 293 292 291 290 290 288 284 282 280 279 278 275 271 269 266 265 268 273 279 284 286 285 285 287 288 293 295 292 290 291 288 283 278 277 280
8 5 351 311 273 261 257 257 257 257 256 253 250 246 244 244 240 235 228 221 220 222 217 209 204 201 197 192 187 185 183 182 186 189 190 203 291 335 337 338 336 338 340 337 333 326 317 309 302 297 292 288 286 285 285 284 283 282 280 278 278 277 275 273 269 265 263 265 269 275 281 284 284 283 284 288 292 290 290 295 295 292 287 281 278
357 354 350 341 316 292 275 266 263 261 258 256 253 250 247 246 241 236 230 224 220 217 211 204 202 199 194 191 187 185 186 188 193 198 201 218 285 323 335 349 2 3 356 350 346 339 330 321 313 309 306 300 294 289 282 277 275 275 274 274 275 275 276 275 274 271 267 264 264 267 271 274 277 280 280 280 284 290 295 298 294 292 291 287 280
350 346 342 337 330 320 299 280 271 266 260 255 253 251 248 245 239 231 226 220 213 208 202 201 203 200 193 189 185 184 187 191 197 202 205 219 259 318 353 21 25 14 359 348 343 340 335 326 319 319 319 315 309 301 294 285 277 272 270 269 269 271 272 273 271 270 270 268 265 264 266 267 267 271 275 277 280 283 287 290 289 291 294 290 284
342 339 336 333 329 325 313 292 274 266 261 255 251 247 244 240 233 224 218 214 208 203 199 198 199 196 190 186 183 181 183 187 192 198 200 201 213 291 11 15 11 3 354 345 337 334 333 327 322 321 320 317 311 304 299 294 287 280 275 270 267 265 264 266 267 267 267 267 264 261 261 265 267 267 270 276 278 278 281 283 283 286 288 288 288
332 331 331 330 328 322 316 302 277 262 258 254 248 242 238 233 226 217 212 207 201 196 194 194 193 190 186 183 180 178 179 182 187 189 189 200 255 319 345 354 354 349 346 342 336 333 329 325 322 318 315 317 315 306 299 294 289 285 281 277 272 267 262 260 261 262 264 265 264 261 258 262 268 267 267 273 276 277 278 277 275 276 277 278 280
323 323 324 326 324 319 313 304 284 263 255 251 246 239 232 225 218 212 207 201 195 191 191 190 188 186 183 180 179 179 180 181 182 184 194 240 302 316 321 334 337 339 341 339 334 331 328 324 321 315 312 315 313 304 297 297 294 290 287 283 278 274 269 264 261 260 261 262 262 261 260 262 266 266 266 270 274 275 274 271 270 271 270 271 273
315 316 318 319 319 315 309 302 288 271 257 250 244 236 227 220 215 209 202 195 190 188 187 184 181 181 180 179 181 182 182 180 179 185 207 268 304 310 314 324 331 334 336 335 331 328 326 323 318 314 312 311 308 302 301 302 301 298 294 289 283 279 276 273 270 266 262 259 259 260 261 262 264 266 266 266 267 267 268 269 269 269 269 270 271
308 308 310 311 312 310 306 299 288 275 259 251 243 232 223 217 211 204 198 193 189 185 182 178 176 176 178 181 184 184 183 178 177 191 225 272 296 306 310 317 323 325 327 329 327 322 322 320 316 312 310 308 305 304 303 302 302 301 296 291 287 283 277 273 270 268 263 259 257 258 260 260 261 263 263 261 262 262 265 270 271 270 272 274 273
302 300 301 303 304 303 302 295 284 270 255 246 237 226 220 214 207 201 196 190 185 181 178 175 174 175 178 183 184 183 182 180 186 209 237 271 294 303 304 307 313 315 319 322 320 314 314 316 313 308 304 302 301 302 303 302 301 299 296 292 290 285 280 275 271 267 264 261 259 259 261 261 262 263 262 260 261 264 269 271 269 266 267 268 265
296 294 294 296 298 298 297 290 278 263 247 238 231 224 218 211 204 199 192 185 180 177 175 174 176 178 181 184 185 183 183 188 202 220 241 274 296 300 299 298 301 306 311 314 312 307 307 312 313 307 299 296 296 297 299 299 297 296 294 292 289 286 283 282 278 273 268 266 265 263 262 262 262 263 263 261 261 263 265 265 264 260 259 258 257
288 287 287 289 292 292 289 284 273 257 240 232 228 223 215 208 202 196 190 184 179 176 174 175 177 180 182 183 183 183 188 203 222 235 250 277 299 303 298 293 294 300 305 306 304 300 302 310 314 309 298 292 293 295 295 294 293 292 292 290 288 285 285 285 284 282 278 273 270 268 266 265 264 263 262 261 260 258 255 255 256 255 253 252 254
284 284 283 285 285 283 280 276 267 252 235 229 227 221 212 205 198 191 186 179 174 173 175 175 175 178 180 181 183 187 199 224 238 245 257 283 301 302 295 289 291 296 300 301 302 300 298 302 308 306 300 296 297 296 294 291 288 288 288 287 285 283 284 285 284 284 283 280 277 274 272 269 266 264 262 261 259 254 249 249 249 249 249 249 250
286 285 283 281 279 275 273 268 260 246 232 228 224 216 208 202 192 185 181 176 173 176 177 174 172 175 178 185 196 206 221 237 243 249 265 291 302 300 293 289 291 297 301 302 302 301 299 298 301 303 300 296 294 293 291 288 285 284 284 282 280 280 283 284 282 281 281 280 278 276 275 271 267 263 261 258 256 251 246 244 242 242 244 246 245
285 284 281 277 274 271 268 263 254 241 229 225 219 210 204 199 189 181 177 174 172 172 170 169 171 176 184 198 213 224 235 243 248 260 280 296 301 298 292 288 291 298 302 302 301 301 302 301 301 300 296 291 290 290 289 287 284 283 280 276 275 277 279 280 280 279 278 277 276 274 272 270 266 261 258 255 252 249 245 242 240 239 240 241 241
282 283 280 275 272 271 268 261 251 237 225 221 214 203 196 191 185 178 173 169 166 164 163 165 169 181 199 210 220 236 248 256 266 278 289 297 301 300 296 294 298 300 299 299 299 299 301 302 301 298 294 290 290 290 289 289 286 282 278 275 274 275 276 275 275 275 273 272 271 270 267 265 263 259 257 253 250 248 247 245 242 240 240 240 240
280 279 276 273 271 270 267 259 244 228 217 210 201 189 181 176 172 168 163 159 159 160 161 165 172 189 208 214 221 241 255 267 280 290 299 306 311 313 311 311 312 308 299 296 297 298 300 299 296 293 291 291 291 291 290 289 286 281 277 276 276 277 276 274 272 270 267 265 264 263 261 259 258 256 254 252 250 248 247 247 245 243 243 243 243
277 273 272 270 268 268 263 249 229 213 202 191 178 166 160 158 155 153 152 152 156 160 167 177 185 194 204 210 217 239 265 286 301 312 319 319 317 317 316 315 315 311 304 298 296 297 297 295 293 294 295 295 295 294 292 289 286 282 280 281 281 280 277 273 269 266 262 259 257 256 255 254 252 252 251 251 250 250 248 249 248 246 246 246 246
269 266 265 266 266 263 248 221 204 195 185 175 163 152 147 145 145 149 154 158 161 167 178 186 187 183 180 185 202 261 319 335 338 332 324 318 315 314 314 313 311 309 306 301 298 298 297 296 297 298 298 298 297 294 292 289 286 284 284 284 282 278 273 268 265 262 258 255 254 253 253 253 251 251 251 251 251 250 249 249 249 248 248 248 247
259 256 258 264 262 243 207 182 174 170 163 157 150 143 140 139 141 149 160 164 165 170 176 177 170 155 147 158 193 355 357 354 345 332 326 322 318 316 316 315 312 311 310 308 305 304 302 300 300 298 297 296 295 292 289 288 287 287 288 286 280 274 269 265 262 259 255 255 254 254 255 256 254 253 253 250 248 246 244 244 246 246 246 248 249
251 246 248 255 244 207 175 157 151 150 148 144 140 137 137 139 143 153 162 163 158 154 154 156 154 146 142 141 52 12 2 0 352 340 333 328 322 320 320 319 318 317 316 313 310 307 304 301 300 299 300 299 297 295 294 293 292 292 291 288 281 274 270 266 264 263 261 261 260 260 260 260 258 256 252 246 243 241 239 238 240 242 243 246 249
243 239 240 237 211 182 165 154 148 144 143 142 141 143 148 152 157 162 163 158 152 150 152 157 158 148 134 118 66 21 10 9 358 342 332 327 325 325 325 325 324 320 316 315 313 308 305 304 305 306 307 306 304 303 301 299 297 295 292 288 284 280 277 274 272 270 269 268 266 264 263 261 258 255 250 244 241 240 238 236 237 239 241 242 245
235 232 226 208 185 169 160 154 149 145 144 145 145 148 156 162 163 159 154 151 152 154 156 157 155 144 126 103 74 46 28 6 345 334 329 326 327 328 328 329 327 321 318 319 317 311 308 310 312 312 312 311 309 308 306 304 301 297 293 290 287 284 281 279 277 275 274 272 269 267 265 263 259 255 250 246 245 244 240 237 238 239 238 238 240
230 222 203 184 170 161 154 151 148 147 148 149 147 147 150 154 154 149 144 144 148 151 151 149 145 139 123 105 88 62 32 360 341 336 335 335 336 335 334 336 335 332 333 331 323 316 316 318 318 317 316 314 311 309 307 305 302 298 296 292 289 286 284 282 280 280 278 275 271 269 266 263 259 254 249 247 247 246 241 238 238 238 236 236 238
212 198 182 168 160 154 150 147 147 148 150 149 146 143 142 143 146 146 144 144 147 150 150 143 134 127 120 111 94 58 26 7 354 352 352 352 353 352 352 357 359 355 350 342 328 323 327 326 322 319 317 314 311 309 308 305 303 300 298 295 292 290 286 283 282 282 281 277 273 270 266 261 256 252 247 244 244 244 241 238 237 236 236 236 236
187 173 162 154 151 148 145 143 144 146 147 146 144 141 138 133 131 135 143 150 152 148 142 136 127 121 117 109 88 55 32 21 15 10 10 10 8 7 11 16 12 3 357 348 336 331 331 328 323 320 317 315 312 310 308 306 303 302 300 298 295 292 288 285 284 283 282 279 275 272 267 261 256 252 246 240 238 238 238 236 234 232 234 236 236
158 148 144 142 143 143 142 143 145 147 147 146 144 143 143 137 127 122 126 133 136 136 134 131 125 122 118 102 77 53 39 32 29 26 23 19 15 14 17 16 10 2 357 349 338 332 329 326 323 320 317 315 312 310 308 306 304 303 301 298 296 294 292 290 289 286 283 278 275 273 269 264 258 253 245 238 233 231 232 233 232 230 230 231 234
138 138 139 140 141 143 146 149 151 152 152 151 148 148 149 146 137 129 124 123 125 128 129 127 128 129 123 100 70 51 41 37 36 34 28 21 17 18 17 12 4 360 356 348 340 333 329 326 323 320 317 315 313 311 309 307 306 305 303 300 298 297 296 295 292 288 284 282 279 276 272 267 259 249 241 233 227 226 228 230 230 229 228 227 228
129 134 139 143 145 149 153 155 155 155 154 154 151 149 150 151 148 144 141 138 137 136 135 136 140 141 129 105 74 52 43 39 39 36 29 22 21 22 18 7 0 358 354 349 343 337 331 326 323 320 318 316 314 312 310 308 307 306 304 303 302 301 301 299 295 291 288 286 283 279 275 271 260 247 238 231 223 221 224 227 228 229 226 221 220
129 135 141 145 149 154 158 158 158 158 156 153 151 152 154 157 157 155 154 152 148 145 143 145 147 144 132 109 77 55 44 40 39 37 30 27 28 26 16 5 358 352 347 342 339 334 330 327 323 321 320 318 317 315 313 311 309 307 305 305 304 303 302 301 298 296 294 290 286 282 277 271 260 246 235 228 223 220 221 222 225 228 224 219 217
134 139 144 147 150 154 155 153 155 157 154 151 152 155 158 159 160 159 159 157 152 148 148 151 152 146 129 103 75 57 43 37 37 35 29 27 27 22 12 4 357 350 345 340 335 331 330 330 328 325 321 319 318 317 315 313 312 311 309 308 306 304 303 303 301 299 295 291 288 284 277 269 258 244 232 224 220 220 219 220 222 225 225 225 226
138 142 147 150 153 153 149 146 147 149 149 151 156 160 161 162 163 161 159 156 153 150 150 153 152 138 116 92 65 48 37 32 30 27 21 18 18 14 9 5 358 351 346 340 335 331 331 333 332 328 324 322 321 320 319 318 316 314 312 310 308 307 307 307 306 304 298 293 291 286 279 271 258 243 230 221 217 216 216 216 218 221 222 222 223
145 150 156 160 158 152 145 141 141 144 148 154 160 163 164 165 165 161 156 154 153 152 149 145 136 118 108 92 54 35 29 25 23 17 9 9 10 9 7 4 358 352 347 342 339 336 334 334 334 332 328 326 324 323 323 321 319 317 314 312 311 310 311 312 311 308 304 299 294 289 283 277 263 242 227 219 216 214 212 211 213 215 217 216 216
162 165 169 166 153 143 139 140 143 147 153 157 160 163 167 170 168 162 158 155 152 149 143 134 125 119 117 88 35 28 27 24 18 10 360 358 2 6 6 3 356 353 349 345 341 338 335 335 336 334 332 329 327 326 326 324 322 320 319 317 314 313 313 315 314 312 308 305 303 301 298 291 269 236 219 214 214 212 209 208 209 210 213 214 205
165 161 157 149 141 136 138 142 146 150 154 158 160 165 171 174 169 164 158 152 148 144 134 123 124 135 139 36 15 19 24 22 16 7 354 347 352 0 4 1 357 354 351 347 342 338 335 335 333 332 331 330 329 329 328 328 327 325 323 322 320 317 317 319 318 315 316 319 319 318 315 306 273 224 211 210 210 209 206 205 207 206 203 193 173
152 145 138 135 135 136 139 141 143 146 152 157 160 162 163 161 159 157 154 149 143 136 124 118 128 152 209 346 3 12 20 20 11 4 355 345 346 355 359 359 358 356 353 349 344 340 337 335 333 333 333 331 331 332 331 331 332 330 327 325 324 322 321 322 322 323 327 329 328 327 325 317 278 219 210 208 206 204 200 198 196 188 175 162 152
145 138 132 131 133 134 134 134 137 140 142 142 143 144 144 143 142 142 142 140 136 133 128 128 141 174 312 350 359 8 18 18 5 359 355 348 347 352 356 357 359 357 354 352 349 345 342 338 336 336 336 335 335 336 336 336 337 336 332 330 329 326 326 326 327 330 334 332 329 333 336 328 280 213 207 204 198 195 190 183 176 165 154 149 146
138 133 129 128 126 126 127 129 130 129 128 128 128 128 127 126 124 122 122 122 125 131 133 125 102 36 16 13 11 11 15 12 0 354 351 347 345 348 352 355 358 357 355 355 354 350 346 342 340 340 341 342 343 344 343 344 346 344 339 336 333 330 331 334 336 337 337 333 333 343 354 358 64 168 186 187 184 180 173 165 157 151 146 143 141
131 128 125 123 121 120 120 120 119 118 118 117 116 115 115 113 110 107 105 104 102 99 81 35 15 20 22 18 14 11 9 5 358 351 346 343 343 344 349 353 356 357 356 356 356 353 349 345 344 344 345 347 350 350 348 349 353 354 351 348 344 339 339 343 345 344 341 338 340 351 7 45 90 103 128 148 155 157 156 151 146 143 141 140 139
123 122 120 118 116 115 114 113 111 110 109 107 104 100 97 94 88 85 83 77 69 58 38 20 16 20 19 14 9 4 0 358 357 352 346 341 340 340 345 353 357 356 356 356 357 354 351 348 347 348 349 351 353 353 350 351 356 360 1 1 357 353 351 353 354 353 350 350 358 16 42 80 95 102 119 132 136 137 138 139 138 138 137 135 134
112 111 110 108 107 105 103 102 98 93 90 90 89 86 83 79 76 73 68 61 53 46 31 23 20 18 15 10 3 359 357 355 352 348 344 341 340 338 343 353 358 357 355 357 358 356 354 352 351 352 353 355 357 357 356 356 360 4 7 8 7 5 1 0 4 8 9 12 32 66 90 100 100 101 111 123 126 125 124 126 128 129 129 129 128
100 99 97 94 91 88 84 83 83 81 78 79 80 79 76 73 70 64 57 51 46 38 30 25 21 15 9 3 358 355 354 351 348 347 345 344 342 338 338 349 358 358 355 356 358 357 356 356 356 358 1 4 5 4 2 2 5 8 11 14 13 11 10 13 19 27 35 44 61 83 97 103 103 104 106 112 117 118 116 116 118 120 121 122 123
83 83 83 80 77 75 74 75 75 74 74 76 75 71 68 65 61 55 52 49 44 38 33 27 20 13 6 360 355 354 352 350 349 349 347 345 344 341 337 344 357 359 356 356 359 1 359 358 358 2 8 12 13 11 9 7 9 12 15 18 18 17 20 27 35 42 52 62 71 82 93 97 99 101 104 107 111 113 112 111 113 115 115 116 118
73 74 76 76 75 74 74 73 72 70 69 70 69 68 66 62 57 52 50 47 44 40 35 29 22 14 6 360 356 355 354 351 349 350 348 346 347 344 340 342 353 358 356 359 3 5 4 2 1 4 11 16 18 19 18 16 16 18 20 23 25 27 31 39 47 54 62 71 76 82 90 96 96 96 99 103 106 106 107 109 111 112 112 113 114
69 70 72 74 74 72 71 69 69 67 65 65 67 67 66 63 60 55 51 50 47 43 37 32 26 18 11 5 1 358 355 350 348 349 350 349 348 346 343 344 348 350 355 3 8 9 9 7 4 7 14 19 21 23 23 21 22 25 27 28 31 37 42 47 55 61 69 76 81 84 89 93 93 91 93 99 101 102 103 105 107 107 108 109 112
Height
789 790 791 791 793 794 796 796 796 798 799 800 801 803 805 806 808 810 811 813 814 816 817 818 819 820 821 822 823 824 825 826 826 827 828 829 829 830 830 831 831 831 831 831 831 830 830 830 829 829 829 828 828 828 828 828 828 828 828 828 828 828 827 826 822 816 814 816 815 813 813 812 811 810 810 809 808 808 807 806 805 804 802 801 800
786 788 789 789 790 791 792 792 793 794 795 796 798 799 801 803 805 807 808 810 811 812 814 815 816 817 818 819 821 822 823 824 824 826 827 827 828 829 830 830 831 831 831 830 830 830 830 829 829 828 828 827 827 827 826 826 826 826 826 826 826 826 825 825 822 817 812 813 814 812 812 811 809 808 808 807 806 805 805 804 803 802 800 799 798
784 786 787 787 787 788 790 790 790 790 792 793 794 796 798 799 801 803 805 806 808 809 811 812 813 814 816 817 818 819 820 822 823 824 825 825 826 827 828 829 830 830 830 830 830 829 829 828 828 827 827 826 826 825 825 825 824 824 824 824 823 824 824 823 821 818 813 811 812 811 810 809 808 807 806 805 804 803 802 801 800 799 798 797 796
783 785 787 787 786 786 786 787 787 788 789 790 791 793 795 797 798 800 802 804 805 807 808 810 811 812 813 814 815 817 818 819 820 821 822 823 824 825 826 827 828 829 829 829 829 828 828 827 827 826 826 825 825 824 824 823 823 822 821 821 821 821 821 821 819 818 814 811 810 810 809 808 807 805 805 803 802 801 800 798 797 797 796 795 794
783 784 786 787 786 785 784 785 785 785 786 787 789 791 793 794 795 797 799 801 803 805 806 808 809 810 811 812 813 815 816 817 818 819 820 821 821 823 824 825 826 827 827 827 827 827 827 827 826 826 825 824 824 823 823 822 821 821 820 819 819 818 818 818 817 816 814 811 809 808 808 807 805 804 803 802 800 798 797 796 795 794 793 792 791
784 784 786 786 784 783 783 783 783 783 784 785 787 789 791 792 793 794 795 797 799 802 804 805 807 808 809 810 811 813 814 815 816 817 818 819 820 820 821 822 824 824 825 825 825 826 826 825 825 825 824 823 823 822 822 821 820 819 819 818 817 817 816 815 814 813 812 809 807 806 806 805 804 802 802 801 799 797 795 794 792 791 790 790 789
785 784 784 783 782 782 781 781 781 782 783 784 785 786 788 789 789 791 792 794 798 801 802 803 805 806 807 809 810 811 812 813 814 815 816 817 818 819 820 820 821 822 822 822 823 823 823 823 823 823 823 822 822 821 820 820 819 818 818 817 816 815 814 813 812 811 809 807 805 803 802 802 801 800 799 799 798 796 794 792 790 789 788 787 787
783 782 782 781 781 780 780 780 780 780 781 781 782 783 784 785 786 788 790 793 797 799 800 801 803 805 806 807 807 808 809 810 811 813 814 816 817 817 818 819 819 819 820 820 820 821 821 821 821 821 821 820 820 820 819 818 818 816 816 816 815 814 813 812 810 809 807 805 803 801 800 799 799 798 797 797 796 795 793 792 789 788 787 786 785
781 781 780 780 779 778 778 778 778 778 779 779 780 780 781 782 783 786 787 789 791 794 797 801 803 805 805 804 804 805 807 808 810 811 812 814 815 816 817 817 817 817 818 818 818 818 819 818 818 818 817 816 816 816 816 816 815 814 814 813 813 812 811 810 809 807 805 803 801 799 798 796 795 795 794 794 794 793 793 792 790 788 786 785 783
780 780 779 779 778 777 776 775 775 776 776 777 777 778 778 779 780 782 784 786 787 790 794 798 801 802 803 803 802 803 805 807 808 810 811 812 813 815 815 816 816 816 816 816 816 816 816 816 815 814 813 812 812 811 811 811 811 811 811 810 810 809 808 807 806 805 803 801 799 798 796 794 793 793 792 791 791 792 792 791 789 787 786 783 781
780 779 778 777 776 775 775 774 774 773 774 774 775 776 776 777 778 779 781 783 785 787 790 794 798 800 801 801 802 803 805 806 808 809 810 811 812 814 814 815 815 815 814 814 814 814 813 813 812 811 810 809 808 807 806 806 806 806 806 806 806 806 805 804 802 802 800 798 797 795 794 792 791 791 790 789 789 789 789 789 788 787 785 783 780
779 778 777 776 774 774 773 772 772 771 772 772 773 774 774 775 776 777 779 780 783 785 788 791 795 797 799 801 802 803 804 806 807 809 810 811 812 813 813 814 814 814 813 813 813 812 811 810 809 808 807 806 805 804 803 802 801 801 801 801 801 800 800 800 799 798 797 795 793 792 791 789 789 789 789 788 787 787 787 787 786 785 784 782 780
778 777 776 774 773 772 771 770 770 769 769 770 770 771 772 773 774 775 776 779 781 783 785 788 791 794 797 800 802 802 803 804 806 808 809 810 811 811 812 812 812 812 811 811 811 810 809 808 807 806 805 803 802 801 800 798 797 796 796 795 795 794 794 794 794 794 794 792 790 788 788 787 786 786 787 786 786 785 784 784 783 783 782 780 779
776 775 774 773 772 770 769 769 767 767 768 768 768 769 770 771 772 773 775 777 779 781 782 785 788 792 795 799 800 802 802 802 804 806 807 808 809 810 810 810 810 810 810 809 809 808 808 806 805 803 802 801 800 799 797 796 794 793 792 791 790 790 789 789 789 789 789 788 786 784 784 784 783 783 784 784 783 783 781 780 780 780 779 778 777
774 773 772 771 770 769 768 767 766 766 766 766 766 767 768 769 771 772 774 776 777 779 780 783 787 791 794 797 799 801 802 802 803 805 806 807 808 808 809 808 808 808 808 807 807 806 806 804 803 801 799 798 797 796 795 793 791 790 789 787 786 786 785 784 784 784 783 783 781 780 780 781 780 780 781 781 780 779 779 778 777 777 776 775 773
773 771 770 769 768 767 767 766 765 765 765 764 764 765 766 767 769 770 772 774 775 777 780 783 786 790 792 795 798 800 801 801 802 803 804 805 805 806 807 806 806 806 805 805 804 804 803 802 801 799 797 796 795 793 792 791 789 787 785 784 783 782 780 780 780 779 779 778 777 776 776 776 776 776 777 777 777 777 777 775 774 774 773 770 769
771 769 767 767 766 765 765 764 763 763 763 762 762 763 764 765 766 768 770 772 774 775 778 781 785 788 791 794 796 798 799 800 800 801 802 803 803 804 804 804 804 803 802 802 801 801 800 799 798 797 795 793 792 790 790 788 786 784 782 780 779 778 776 776 775 774 774 773 772 771 771 771 771 772 772 773 773 775 775 771 770 771 768 764 763
768 767 766 765 764 763 762 762 761 761 760 760 760 761 762 763 765 767 768 770 771 773 775 779 783 787 790 793 796 797 798 798 799 800 800 801 801 801 802 802 801 800 799 798 798 797 796 795 794 793 791 790 789 788 787 786 784 782 779 777 775 774 773 772 771 770 769 768 767 766 766 766 766 766 767 767 768 770 769 766 766 767 763 759 759
765 765 764 763 762 761 760 759 758 758 758 757 758 758 760 761 763 766 768 770 772 775 777 779 783 787 790 793 795 796 797 797 798 798 799 799 799 800 800 800 799 797 797 796 795 795 793 792 790 789 787 786 785 784 784 783 781 779 777 774 772 770 769 769 767 766 765 764 763 762 761 761 761 761 761 760 761 762 762 761 761 761 757 755 756
762 761 760 760 759 757 757 756 755 755 755 755 756 757 758 760 762 765 767 770 773 777 780 782 785 788 790 793 794 795 796 796 796 797 797 798 798 798 798 797 796 795 794 793 792 792 790 789 787 786 784 782 781 781 780 780 778 776 774 772 768 766 766 765 764 763 762 760 760 759 758 757 757 756 755 755 755 755 755 755 755 755 752 751 752
758 758 756 756 755 754 753 753 752 752 753 753 754 755 757 758 761 763 766 768 772 776 780 783 786 788 790 792 793 794 795 795 795 796 796 797 797 796 796 795 794 793 792 791 790 789 787 786 784 783 781 779 778 777 776 775 774 772 770 767 764 763 764 762 761 760 759 757 756 755 754 753 752 751 750 750 749 749 749 749 749 748 748 747 746
755 755 754 752 751 750 750 750 750 750 750 751 752 753 755 757 760 763 765 768 772 776 780 783 786 788 790 792 793 794 794 794 795 795 795 795 795 795 794 793 792 791 790 789 788 786 785 783 781 779 778 776 774 773 771 769 768 766 764 762 760 760 760 759 757 756 754 753 752 750 749 748 747 746 745 745 744 744 744 743 743 743 742 741 741
753 752 751 749 748 748 747 747 747 747 748 749 750 752 755 758 761 764 766 769 773 776 780 783 785 788 789 791 792 793 794 794 794 794 794 794 793 793 792 790 789 789 788 786 785 783 782 780 778 776 774 772 769 768 765 764 763 760 759 757 756 756 756 754 752 751 749 748 747 745 744 743 742 741 740 740 739 739 739 738 738 738 737 737 737
749 749 748 747 746 745 744 744 745 745 746 748 750 752 756 759 762 765 769 772 775 777 779 782 785 788 789 790 791 792 793 793 793 792 792 791 790 789 788 787 787 786 785 784 782 780 779 777 774 772 769 766 764 762 760 759 757 755 753 752 751 751 750 748 747 745 744 742 741 739 738 737 736 735 734 734 734 734 734 734 734 734 733 733 733
746 745 745 744 743 742 742 742 742 743 745 747 748 751 755 758 762 766 769 772 775 777 780 784 786 788 788 789 790 791 791 791 791 790 789 788 788 787 786 785 784 784 782 780 778 776 775 773 770 767 764 762 760 758 755 754 752 750 748 747 746 746 744 742 741 739 738 736 735 733 732 731 730 729 729 730 730 730 730 729 729 729 729 729 729
741 741 741 741 740 740 740 740 741 743 745 747 749 751 754 758 762 766 769 772 775 778 782 785 787 787 787 788 789 790 790 789 789 788 787 787 786 785 784 783 782 780 778 776 774 773 771 769 766 764 761 759 757 755 752 750 748 746 744 743 742 740 739 737 736 734 732 730 729 727 726 725 725 724 724 725 725 724 725 725 725 725 725 725 725
737 737 737 738 738 738 738 739 741 743 745 748 750 753 756 759 762 766 770 773 776 780 784 786 787 787 786 787 788 788 788 788 788 787 787 786 785 783 782 780 779 777 775 774 772 770 768 766 764 761 758 756 754 751 749 746 744 742 741 739 738 736 734 733 731 730 728 726 724 722 721 720 720 719 719 719 719 719 719 720 720 720 721 722 721
733 733 734 735 736 736 737 739 740 743 746 748 751 754 757 760 763 767 770 774 777 780 783 785 786 786 785 786 787 787 787 787 787 787 786 785 783 782 780 778 777 775 774 772 771 768 766 764 761 758 756 753 751 748 746 744 742 740 738 736 734 732 731 729 727 725 723 721 719 717 716 715 715 714 714 714 714 714 714 715 716 716 717 718 717
729 730 730 732 734 735 737 738 739 742 745 749 752 756 759 762 765 768 772 775 777 780 782 784 784 784 784 785 786 786 786 787 787 786 785 783 781 780 778 776 775 773 772 771 769 767 764 762 759 756 754 751 748 746 743 741 739 737 735 733 731 729 727 725 722 720 718 717 715 713 711 710 710 709 710 709 709 709 710 711 711 712 713 713 713
726 726 728 730 732 733 736 738 739 742 746 749 752 756 760 764 767 770 773 775 777 779 780 781 782 782 783 784 785 786 786 786 785 784 783 781 780 778 776 774 773 772 770 769 767 765 762 760 757 754 752 749 747 744 741 739 736 734 731 730 727 725 723 720 718 715 713 712 710 708 707 706 705 704 704 704 703 704 705 706 706 707 708 708 708
721 723 725 727 730 732 735 738 741 744 748 750 753 757 761 765 769 772 774 775 777 778 778 779 780 781 783 784 785 785 785 785 784 783 781 780 778 776 774 773 771 770 769 767 765 763 760 757 755 753 750 748 745 742 739 736 733 730 728 725 723 721 718 716 713 711 709 707 705 704 702 701 700 699 699 698 698 699 700 701 702 702 703 703 704
717 720 723 726 729 732 736 739 743 746 748 751 755 758 761 765 768 772 773 775 776 777 778 779 780 782 783 784 785 785 785 784 782 781 780 778 776 774 772 771 770 768 767 765 763 761 758 756 754 751 749 746 743 740 737 734 731 728 725 722 719 717 714 711 709 707 705 703 701 699 698 696 695 694 694 694 694 695 696 696 697 698 698 699 699
716 719 723 727 731 735 737 741 745 747 749 752 756 759 762 765 767 770 773 775 776 777 779 780 781 782 783 784 784 784 783 782 781 779 778 776 774 772 771 769 768 767 765 763 762 760 758 755 753 750 747 744 741 738 735 732 728 725 722 718 715 713 710 707 705 703 700 698 696 694 693 691 690 690 689 690 690 691 691 692 693 693 694 695 695
717 721 726 729 734 737 740 743 745 748 750 754 757 760 762 764 767 769 772 775 777 778 780 781 782 783 783 783 783 783 782 781 779 777 776 774 773 771 769 768 767 766 764 763 761 759 757 754 751 749 746 743 739 736 733 729 726 722 719 715 712 709 706 703 701 698 696 693 691 689 688 687 686 685 685 685 686 687 687 688 689 690 690 691 691
721 726 730 732 735 738 742 744 746 748 751 755 758 760 763 765 767 769 771 774 776 778 780 781 782 783 783 783 782 781 780 779 777 776 775 774 772 770 769 768 766 765 763 762 760 758 756 753 750 747 744 740 737 734 730 727 724 720 716 712 709 705 702 700 697 694 692 689 687 685 683 682 681 681 681 682 682 683 683 684 685 686 686 687 688
725 729 733 735 738 741 744 746 747 750 753 756 759 761 763 765 767 769 771 773 775 777 779 781 781 782 782 781 780 780 779 778 777 776 775 773 771 770 769 768 766 764 763 761 759 757 755 752 749 745 742 738 735 732 728 725 721 718 714 710 706 702 699 696 693 690 688 685 683 681 679 678 677 677 677 678 678 679 680 680 681 682 683 684 685
729 733 736 738 741 744 746 748 749 752 755 757 760 762 764 766 768 769 771 773 775 776 778 779 780 780 780 780 779 778 778 778 777 776 774 773 771 770 769 767 766 764 762 761 759 756 753 750 747 744 740 737 733 730 726 722 719 715 711 708 704 700 697 694 690 688 685 682 679 677 676 674 673 673 673 674 675 676 676 677 678 679 680 682 683
734 736 739 741 743 746 748 749 751 754 756 759 761 762 764 766 768 769 771 773 774 776 777 778 778 779 778 778 778 778 778 777 776 775 774 773 771 770 769 767 765 764 762 760 758 755 752 749 746 742 739 735 732 728 724 720 717 713 709 705 702 698 694 691 688 685 682 679 676 674 672 671 669 669 670 670 671 673 673 675 676 677 678 680 681
738 740 742 744 746 748 749 751 753 755 758 760 762 763 765 767 768 769 771 773 774 776 776 777 777 777 777 777 777 777 777 776 776 775 774 773 772 770 768 767 765 763 761 759 756 754 751 747 744 740 737 733 730 726 722 719 715 711 707 704 700 696 692 689 685 682 679 677 674 671 669 667 666 666 666 667 668 670 671 672 673 674 676 677 678
741 743 745 747 748 749 750 752 755 757 759 761 763 764 766 767 768 769 771 773 774 775 776 776 777 777 777 777 777 776 776 776 775 775 774 773 772 770 768 766 765 763 760 758 755 752 749 746 743 739 736 732 729 725 721 717 713 709 706 702 698 694 690 687 684 680 677 674 671 668 666 664 663 663 664 664 666 667 668 670 671 672 673 675 676
743 745 747 748 749 750 752 754 757 758 760 762 763 765 766 767 768 770 771 773 774 774 775 776 776 776 777 776 776 775 775 775 775 774 774 773 772 770 768 766 764 762 760 757 754 751 748 745 742 738 735 731 728 724 720 716 712 708 705 701 697 693 689 685 682 679 676 672 669 666 663 661 660 661 662 662 664 665 667 668 670 671 672 674 675
745 746 748 749 750 751 754 756 758 759 761 762 764 765 766 767 769 770 771 772 773 774 775 776 777 777 776 776 775 774 774 774 774 774 773 772 771 769 767 766 764 761 759 756 754 751 748 744 741 738 735 731 727 724 720 715 711 708 704 700 696 692 688 684 681 678 674 671 668 665 662 660 659 660 660 661 663 664 666 667 668 669 671 673 674
746 747 749 750 752 754 756 757 759 761 762 763 765 766 767 768 769 771 772 772 773 775 776 777 777 777 776 775 774 773 773 773 773 772 772 771 770 769 767 765 763 761 759 756 754 751 748 744 741 738 734 731 727 723 720 715 711 707 703 699 695 691 687 684 680 676 673 670 667 664 662 660 659 660 660 661 662 664 665 666 667 669 671 673 675
748 749 750 752 754 756 757 759 761 762 764 765 766 767 768 769 770 771 772 773 774 776 776 777 777 776 775 774 773 773 772 772 772 771 771 770 769 768 767 765 763 761 758 756 753 750 747 744 741 738 734 731 727 723 719 715 711 707 703 699 695 691 687 683 680 676 673 670 667 665 663 661 660 660 661 662 663 664 665 666 668 669 671 673 675
750 751 752 754 756 758 760 761 763 765 766 767 768 768 769 770 771 772 773 774 776 776 777 777 776 775 774 774 773 772 772 772 771 771 770 769 768 767 766 764 762 760 758 756 753 750 748 745 741 738 734 730 726 723 719 715 711 707 703 699 695 691 687 683 680 676 673 670 668 666 664 663 662 662 662 663 664 665 666 667 669 671 672 674 676
752 753 755 756 758 760 762 764 766 767 768 769 769 770 771 772 772 773 775 776 777 777 777 777 776 775 774 774 773 773 772 772 771 771 770 769 768 767 766 764 762 761 759 756 753 751 748 745 742 738 735 731 727 723 719 715 711 707 703 699 696 691 687 684 680 677 674 672 669 667 666 664 664 664 664 664 665 666 668 669 671 672 674 676 678
755 756 758 760 761 763 765 767 768 770 770 770 771 772 772 773 774 775 776 777 777 778 777 777 776 775 774 774 774 773 772 772 771 770 770 769 768 767 765 764 762 761 759 757 754 751 749 746 743 739 736 732 728 724 720 716 712 708 704 700 696 692 688 685 682 679 676 673 671 669 668 667 666 666 667 667 668 669 670 672 674 675 677 679 681
759 760 762 763 765 767 769 770 771 772 772 772 773 773 774 775 776 777 778 778 778 778 777 777 776 775 775 775 774 773 773 772 771 770 769 768 768 766 765 764 762 761 759 757 754 752 750 747 744 740 737 733 729 725 721 717 713 709 705 701 698 694 690 687 683 680 678 675 673 672 670 669 669 669 670 670 671 672 673 675 677 678 680 682 684
763 764 765 767 769 770 772 773 774 774 774 775 775 775 775 776 778 778 779 779 778 778 777 777 776 776 776 775 774 774 773 772 771 770 769 768 767 766 765 763 762 761 759 757 755 753 750 748 745 741 738 734 730 727 723 719 715 711 707 703 700 696 693 689 686 683 681 678 676 675 674 673 673 673 673 674 674 675 676 678 680 682 684 686 688
767 768 770 771 772 774 775 775 776 776 776 776 776 776 777 779 780 780 780 780 779 778 778 777 777 776 776 775 775 774 773 772 771 770 769 768 767 766 764 763 762 761 760 758 756 754 751 749 746 743 740 736 733 729 725 721 718 714 710 706 703 699 696 692 689 686 684 681 680 678 677 677 676 677 677 678 678 679 680 682 684 686 687 689 692
771 772 773 774 775 776 777 777 778 778 778 778 778 779 780 781 782 782 782 781 780 779 779 778 778 777 777 776 775 774 773 772 771 770 769 768 767 765 764 763 762 761 760 758 757 755 752 750 748 745 742 738 735 731 727 724 720 717 713 709 706 702 699 696 693 690 688 685 684 683 681 681 681 681 682 682 683 683 685 686 688 690 692 694 696